Weather History for KCIU - March, 2014

Change the Weather History Date:

Thursday, March 6, 2014

  Actual Average Record
Temperature  
Mean Temperature 10 °F -  
Max Temperature 23 °F 31 °F 45 °F (1983)
Min Temperature -2 °F 8 °F -18 °F (2007)
Degree Days  
Heating Degree Days 54    
Moisture  
Dew Point 6 °F    
Average Humidity 81    
Maximum Humidity 100    
Minimum Humidity 54    
Precipitation  
Precipitation 0.00 in - - ()
Sea Level Pressure  
Sea Level Pressure 30.33 in    
Wind  
Wind Speed 10 mph (SE)    
Max Wind Speed 23 mph    
Max Gust Speed 30 mph    
Visibility 10 miles    
Events      
Averages and records for this station are not official NWS values.
T = Trace of Precipitation, MM = Missing Value Source: NWS Daily Summary

Daily Weather History Graph

Daily Weather History Graph

Search for Another Location

Airport or City:

Trip Planner

Search our weather history database for the weather conditions in past years. The results will help you decide how hot, cold, wet, or windy it might be!

Date:

Astronomy

Mar. 06, 2014 Rise Set
Actual Time 7:07 AM EST 6:31 PM EST
Civil Twilight 6:37 AM EST 7:01 PM EST
Nautical Twilight 6:03 AM EST 7:36 PM EST
Astronomical Twilight 5:28 AM EST 8:11 PM EST
Moon 9:55 AM EST (3/6) No Moon Set
Length of Visible Light 12h 23m
Length of Day
11h 23m
Waxing Crescent, 32% of the Moon is Illuminated
Mar 6
Waxing Crescent
Mar 8
First Quarter
Mar 16
Full
Mar 23
Last Quarter
Mar 30
New

Hourly Weather History & Observations

Time (EST) Temp. Windchill Dew Point Humidity Pressure Visibility Wind Dir Wind Speed Gust Speed Precip Events Conditions
12:15 AM -0.4 °F -8.3 °F -5.8 °F 78% 30.54 in 10.0 mi SE 3.5 mph - N/A   Clear
12:35 AM -0.4 °F -10.4 °F -2.2 °F 92% 30.53 in 10.0 mi ESE 4.6 mph - N/A   Clear
12:55 AM -0.4 °F -10.4 °F -4.0 °F 85% 30.53 in 10.0 mi ESE 4.6 mph - N/A   Clear
1:15 AM -0.4 °F -10.4 °F -2.2 °F 92% 30.53 in 10.0 mi ESE 4.6 mph - N/A   Clear
1:35 AM -2.2 °F -14.2 °F -5.8 °F 85% 30.53 in 10.0 mi ESE 5.8 mph - N/A   Clear
1:55 AM -0.4 °F -10.4 °F -2.2 °F 92% 30.53 in 10.0 mi SE 4.6 mph - N/A   Clear
2:15 AM -0.4 °F -13.4 °F -2.2 °F 92% 30.52 in 10.0 mi SE 6.9 mph - N/A   Clear
2:35 AM 1.4 °F -12.5 °F -0.4 °F 92% 30.52 in 10.0 mi SE 8.1 mph - N/A   Clear
2:55 AM 1.4 °F -11.3 °F -0.4 °F 92% 30.53 in 10.0 mi SE 6.9 mph - N/A   Clear
3:15 AM -0.4 °F -13.4 °F -2.2 °F 92% 30.53 in 10.0 mi SE 6.9 mph - N/A   Clear
3:35 AM -0.4 °F -12.0 °F -2.2 °F 92% 30.53 in 10.0 mi SE 5.8 mph - N/A   Clear
3:55 AM -0.4 °F -10.4 °F -2.2 °F 92% 30.53 in 10.0 mi SSE 4.6 mph - N/A   Clear
4:15 AM -0.4 °F -10.4 °F -2.2 °F 92% 30.52 in 10.0 mi SE 4.6 mph - N/A   Clear
4:35 AM -0.4 °F -12.0 °F -2.2 °F 92% 30.52 in 10.0 mi SE 5.8 mph - N/A   Clear
4:55 AM -0.4 °F -13.4 °F -2.2 °F 92% 30.52 in 10.0 mi SE 6.9 mph - N/A   Clear
5:15 AM 1.4 °F -12.5 °F -0.4 °F 92% 30.51 in 10.0 mi SE 8.1 mph - N/A   Clear
5:35 AM -0.4 °F -12.0 °F -2.2 °F 92% 30.50 in 10.0 mi SE 5.8 mph - N/A   Clear
5:55 AM -0.4 °F -12.0 °F -2.2 °F 92% 30.50 in 10.0 mi SSE 5.8 mph - N/A   Clear
6:15 AM -0.4 °F -13.4 °F -2.2 °F 92% 30.50 in 10.0 mi SE 6.9 mph - N/A   Clear
6:35 AM 1.4 °F -14.5 °F -0.4 °F 92% 30.49 in 10.0 mi SE 10.4 mph - N/A   Clear
6:55 AM 1.4 °F -11.3 °F -0.4 °F 92% 30.48 in 10.0 mi SE 6.9 mph - N/A   Clear
7:15 AM -0.4 °F -15.7 °F -0.4 °F 100% 30.47 in 10.0 mi SSE 9.2 mph - N/A   Clear
7:35 AM 1.4 °F -12.5 °F -0.4 °F 92% 30.47 in 10.0 mi SE 8.1 mph - N/A   Clear
7:55 AM 1.4 °F -9.9 °F -0.4 °F 92% 30.47 in 10.0 mi ESE 5.8 mph - N/A   Clear
8:15 AM 3.2 °F -10.3 °F -0.4 °F 85% 30.47 in 10.0 mi SE 8.1 mph - N/A   Clear
8:35 AM 3.2 °F -10.3 °F 1.4 °F 92% 30.46 in 10.0 mi SE 8.1 mph - N/A   Clear
8:55 AM 5.0 °F -6.9 °F 3.2 °F 92% 30.47 in 10.0 mi SE 6.9 mph - N/A   Clear
9:15 AM 10.4 °F -0.4 °F 6.8 °F 85% 30.47 in 10.0 mi SE 6.9 mph - N/A   Clear
9:35 AM 10.4 °F -3.3 °F 8.6 °F 92% 30.46 in 10.0 mi SE 10.4 mph - N/A   Clear
9:55 AM 12.2 °F -2.5 °F 8.6 °F 85% 30.44 in 10.0 mi SE 12.7 mph - N/A   Clear
10:15 AM 14.0 °F -0.2 °F 8.6 °F 79% 30.43 in 10.0 mi SSE 12.7 mph - N/A   Clear
10:35 AM 17.6 °F 5.0 °F 8.6 °F 68% 30.43 in 10.0 mi SSE 11.5 mph 21.9 mph N/A   Clear
10:55 AM 19.4 °F 5.0 °F 8.6 °F 63% 30.42 in 10.0 mi SSE 16.1 mph - N/A   Clear
11:15 AM 19.4 °F 5.5 °F 8.6 °F 63% 30.40 in 10.0 mi SSE 15.0 mph 20.7 mph N/A   Clear
11:35 AM 19.4 °F 4.5 °F 8.6 °F 63% 30.39 in 10.0 mi SSE 17.3 mph 21.9 mph N/A   Clear
11:55 AM 21.2 °F 8.9 °F 8.6 °F 58% 30.39 in 10.0 mi South 12.7 mph 19.6 mph N/A   Clear
12:15 PM 21.2 °F 8.9 °F 8.6 °F 58% 30.38 in 10.0 mi South 12.7 mph 24.2 mph N/A   Clear
12:35 PM 23.0 °F 10.6 °F 8.6 °F 54% 30.36 in 10.0 mi South 13.8 mph 19.6 mph N/A   Clear
12:55 PM 23.0 °F 9.2 °F 10.4 °F 59% 30.35 in 10.0 mi SE 17.3 mph - N/A   Clear
1:15 PM 23.0 °F 9.6 °F 10.4 °F 59% 30.33 in 10.0 mi SE 16.1 mph - N/A   Clear
1:35 PM 23.0 °F 8.7 °F 12.2 °F 63% 30.32 in 10.0 mi SE 18.4 mph - N/A   Clear
1:55 PM 23.0 °F 9.6 °F 10.4 °F 59% 30.31 in 10.0 mi SE 16.1 mph - N/A   Clear
2:15 PM 23.0 °F 9.6 °F 10.4 °F 59% 30.29 in 10.0 mi SE 16.1 mph 23.0 mph N/A   Clear
2:35 PM 23.0 °F 9.2 °F 10.4 °F 59% 30.28 in 10.0 mi SE 17.3 mph - N/A   Clear
2:55 PM 21.2 °F 6.4 °F 12.2 °F 68% 30.27 in 10.0 mi SE 18.4 mph - N/A   Clear
3:15 PM 23.0 °F 8.0 °F 14.0 °F 68% 30.25 in 10.0 mi SE 20.7 mph - N/A   Clear
3:35 PM 23.0 °F 7.6 °F 14.0 °F 68% 30.24 in 10.0 mi SE 21.9 mph - N/A   Clear
3:55 PM 23.0 °F 8.0 °F 14.0 °F 68% 30.23 in 10.0 mi SE 20.7 mph - N/A   Clear
4:15 PM 21.2 °F 4.9 °F 15.8 °F 80% 30.21 in 10.0 mi SE 23.0 mph 29.9 mph N/A   Clear
4:35 PM 21.2 °F 6.0 °F 14.0 °F 74% 30.20 in 10.0 mi SE 19.6 mph 26.5 mph N/A   Clear
4:55 PM 21.2 °F 4.9 °F 14.0 °F 74% 30.18 in 10.0 mi SE 23.0 mph 26.5 mph N/A   Clear
5:15 PM 21.2 °F 6.8 °F 14.0 °F 74% 30.18 in 10.0 mi SE 17.3 mph - N/A   Clear
5:35 PM 21.2 °F 6.0 °F 12.2 °F 68% 30.17 in 10.0 mi SE 19.6 mph - N/A   Clear
5:55 PM 19.4 °F 6.0 °F 12.2 °F 74% 30.16 in 10.0 mi SE 13.8 mph - N/A   Clear
6:15 PM 19.4 °F 5.0 °F 12.2 °F 74% 30.15 in 10.0 mi ESE 16.1 mph 23.0 mph N/A   Clear
6:35 PM 17.6 °F 2.2 °F 12.2 °F 79% 30.15 in 10.0 mi SE 17.3 mph 21.9 mph N/A   Clear
6:55 PM 17.6 °F 2.2 °F 12.2 °F 79% 30.16 in 10.0 mi ESE 17.3 mph - N/A   Clear
7:15 PM 15.8 °F -1.5 °F 12.2 °F 86% 30.13 in 10.0 mi SE 20.7 mph 24.2 mph N/A   Clear
7:35 PM 15.8 °F 0.9 °F 12.2 °F 86% 30.13 in 10.0 mi ESE 15.0 mph - N/A   Clear
7:55 PM 15.8 °F 0.3 °F 12.2 °F 86% 30.12 in 10.0 mi SE 16.1 mph - N/A   Clear
8:15 PM 15.8 °F 1.4 °F 12.2 °F 86% 30.12 in 10.0 mi ESE 13.8 mph - N/A   Clear
8:35 PM 15.8 °F 0.9 °F 12.2 °F 86% 30.11 in 10.0 mi ESE 15.0 mph - N/A   Clear
8:55 PM 15.8 °F 0.3 °F 12.2 °F 86% 30.10 in 10.0 mi ESE 16.1 mph - N/A   Clear
9:15 PM 15.8 °F -1.1 °F 10.4 °F 79% 30.08 in 10.0 mi SE 19.6 mph - N/A   Clear
9:35 PM 15.8 °F -0.6 °F 10.4 °F 79% 30.07 in 10.0 mi SE 18.4 mph - N/A   Clear
9:55 PM 14.0 °F -2.0 °F 10.4 °F 86% 30.08 in 10.0 mi SE 16.1 mph - N/A   Clear
10:15 PM 14.0 °F -2.5 °F 10.4 °F 86% 30.08 in 10.0 mi SE 17.3 mph - N/A   Clear
10:35 PM 14.0 °F -1.4 °F 10.4 °F 86% 30.07 in 10.0 mi SE 15.0 mph - N/A   Clear
10:55 PM 14.0 °F -1.4 °F 10.4 °F 86% 30.06 in 10.0 mi SE 15.0 mph - N/A   Clear
11:15 PM 14.0 °F -1.4 °F 10.4 °F 86% 30.05 in 10.0 mi SE 15.0 mph - N/A   Clear
11:35 PM 12.2 °F -2.5 °F 10.4 °F 92% 30.04 in 10.0 mi SE 12.7 mph - N/A   Clear
11:55 PM 12.2 °F -1.8 °F 8.6 °F 85% 30.04 in 10.0 mi SE 11.5 mph - N/A   Clear